Вернуться в каталог

STARLINK-37558

АктивенСвязьVLEO
NORAD 69239·PAYLOAD·🇺🇸 United States

Запущен May 29, 2026 с Cape Canaveral Space Force Station

Loading…

Ближайшие Пролёты (ближайшие 24 часа)

TLE

СвежийSource: CelesTrak SupGP

Эпоха: Sep 14, 2026, 22:49 UTC

1 69239C 26117B   26257.95118056 -.00038810  00000+0 -11463-2 0  2578
2 69239  53.1571 179.7582 0001225  89.3218 287.6742 15.34419512    15

Отслеживайте STARLINK-37558 в реальном времени с AllMySat

Download on the App Store